Wind_Speed
40 41 41 42 44 44 44 45 46 47 47 47 47 47 47 47 47 47 48 48 49 48 48 50 50 51 52 52 53 55 57 58 61 62 63 65 65 66 67 67 67 67 67
41 42 42 43 44 45 45 46 48 48 49 49 49 49 49 50 49 49 49 50 51 52 52 52 53 54 55 55 57 58 59 60 62 64 65 66 65 65 65 64 64 64 64
41 42 44 44 45 45 46 48 48 49 50 51 50 51 51 51 51 51 52 52 53 54 54 54 55 56 58 58 59 60 61 63 63 63 64 64 62 62 61 59 57 56 55
42 43 44 44 45 47 48 49 49 49 50 50 51 51 52 52 52 53 53 54 55 55 55 55 56 56 57 58 59 60 60 61 61 60 59 57 55 53 51 49 48 47 46
41 43 44 45 46 46 47 48 48 48 49 50 51 52 52 52 53 53 53 53 54 54 55 56 56 55 55 56 57 57 57 56 55 53 50 48 47 45 44 43 42 41 40
40 41 42 43 43 44 45 46 46 47 48 49 49 49 51 51 51 52 53 53 54 55 55 55 54 54 53 54 55 54 52 49 47 44 43 41 41 40 40 39 37 36 35
38 38 39 40 40 41 41 43 44 45 46 47 47 47 48 50 51 52 53 54 54 53 52 51 51 51 50 49 48 46 44 41 39 38 37 36 35 33 32 31 30 30 30
35 35 36 36 37 38 39 40 41 42 43 43 44 45 46 48 49 49 50 50 49 49 48 47 46 45 43 42 39 37 35 34 32 30 29 27 26 26 25 24 24 25 26
31 32 33 33 34 34 35 36 37 38 39 40 41 42 44 45 45 45 45 45 45 44 42 40 38 35 33 31 29 28 27 25 23 22 21 20 19 19 20 20 21 21 21
27 28 28 29 30 31 32 33 34 34 36 36 37 39 40 41 41 40 40 38 36 33 29 26 24 22 21 21 20 19 17 16 14 14 13 13 14 15 16 18 18 19 19
24 24 25 25 26 27 28 29 30 31 31 33 34 35 35 34 34 32 30 27 24 20 17 14 13 13 12 12 11 10 9 8 8 8 9 10 11 13 15 16 16 17 18
21 22 22 23 23 23 24 25 26 27 28 29 29 29 28 26 24 22 19 16 13 11 9 8 7 8 8 8 8 8 7 7 7 7 9 9 11 12 13 14 15 16 17
18 19 19 19 20 21 22 23 23 24 24 24 23 22 20 18 16 14 12 10 8 8 7 7 8 9 9 9 9 9 9 8 8 9 9 10 11 12 13 13 14 15 16
15 16 16 17 18 19 19 20 20 19 19 18 18 17 15 13 11 10 9 8 8 8 8 9 10 10 10 11 10 10 10 10 9 10 10 12 12 13 13 13 13 14 15
14 14 15 16 16 16 17 16 15 15 15 14 13 12 11 10 9 9 9 9 8 9 9 9 9 9 10 10 10 9 9 9 10 10 11 12 13 13 13 13 13 13 13
13 13 14 14 14 14 13 12 12 12 12 11 10 10 9 9 9 9 9 9 9 9 9 9 9 9 9 9 9 9 9 9 10 11 12 12 12 12 12 12 12 12 12
13 12 13 12 11 11 10 10 10 10 9 8 8 8 9 9 9 9 8 9 8 8 9 9 8 8 9 9 9 9 9 10 10 11 11 11 11 11 12 12 11 11 11
11 11 10 10 9 8 8 8 8 7 7 6 6 7 7 8 8 8 8 9 9 9 9 8 8 8 9 9 10 10 10 11 11 11 11 11 11 11 11 11 10 10 10
9 9 8 8 7 7 6 6 6 6 6 5 5 6 7 7 7 8 9 9 10 9 9 9 9 9 9 10 10 11 11 12 12 11 11 10 10 10 10 10 10 9 10
7 7 6 6 6 5 5 5 5 5 4 4 5 5 6 6 7 8 9 9 9 10 10 11 10 10 10 11 12 12 12 12 12 11 10 10 10 10 9 9 9 9 9
6 6 5 5 5 4 4 4 4 4 3 4 4 5 5 6 6 7 8 9 9 10 11 11 11 11 11 12 12 12 12 12 11 10 10 10 10 9 9 8 8 9 9
5 5 5 4 4 3 3 3 3 3 3 3 3 4 5 6 7 7 8 9 9 10 11 11 11 11 12 12 13 12 12 12 11 11 10 10 10 9 8 8 8 8 8
5 5 4 4 3 3 3 3 3 3 3 3 4 4 5 6 7 8 8 9 9 10 10 11 11 12 12 12 13 13 12 12 11 11 10 10 10 9 8 8 8 8 8
5 4 4 4 3 3 3 3 3 3 3 4 4 5 6 6 7 7 8 8 8 9 10 11 11 11 12 12 13 13 12 12 11 11 10 10 9 9 9 8 8 8 9
4 4 3 3 3 3 3 3 3 4 4 5 5 5 6 6 7 7 7 8 8 8 9 11 11 11 12 12 13 13 13 12 12 11 10 10 10 9 9 9 9 9 10
5 4 4 3 3 2 3 3 3 4 4 4 5 5 6 6 6 6 7 7 8 8 10 10 11 11 11 12 12 13 13 12 12 11 11 10 10 10 10 10 10 11 11
Wind_Direction
266 270 273 275 277 279 282 285 288 290 291 293 294 294 294 293 293 291 290 288 287 285 283 283 281 279 278 279 280 280 279 279 279 281 283 283 283 283 283 285 286 287 287
266 270 273 275 277 279 282 285 286 288 289 291 291 291 290 290 290 289 287 285 285 284 283 282 281 279 278 280 281 280 279 279 279 281 282 282 283 283 285 286 288 289 289
269 271 274 276 278 280 282 284 286 287 288 288 289 289 289 288 287 287 284 283 283 282 282 281 280 280 279 280 281 281 280 280 280 281 282 283 286 288 289 289 291 292 293
271 273 275 278 279 281 283 284 285 286 287 287 288 288 288 286 285 285 283 282 281 281 282 282 283 283 284 284 283 283 283 284 284 284 285 287 289 290 292 293 294 296 297
272 273 275 277 278 280 282 283 284 285 286 286 286 286 286 286 286 285 284 284 283 283 284 284 285 285 285 286 286 286 287 287 288 288 288 289 291 293 294 296 297 298 299
273 274 276 278 279 280 281 282 283 284 285 285 284 286 287 288 288 288 287 286 287 287 288 287 287 287 288 288 289 289 289 290 290 290 291 293 295 296 297 298 300 300 300
274 275 277 278 279 280 281 283 284 285 285 285 287 289 291 292 293 292 292 291 291 291 291 291 290 290 291 291 292 292 292 292 292 293 294 296 297 298 300 302 303 303 303
275 277 278 280 282 283 284 285 286 287 289 291 293 295 295 295 295 295 295 295 294 294 293 292 292 293 293 293 293 292 293 293 293 294 295 297 298 302 304 306 308 310 311
276 279 281 282 284 286 288 289 291 293 295 297 298 298 298 298 298 298 298 297 296 295 294 293 293 294 295 296 296 297 296 296 295 295 296 300 304 307 309 313 317 318 318
280 282 284 285 288 290 292 294 296 298 300 301 301 302 302 302 302 301 301 301 301 300 300 300 301 302 304 304 303 303 302 301 301 301 307 312 314 318 322 324 325 326 327
285 287 289 291 294 296 297 299 300 302 303 305 306 307 307 307 307 308 309 309 308 309 310 312 314 317 320 322 323 325 327 325 326 328 332 333 333 331 330 329 330 332 334
288 291 293 295 297 299 301 303 305 308 310 311 313 314 314 315 317 319 321 323 326 331 337 343 349 354 1 8 13 17 14 10 4 358 351 345 338 333 331 331 333 335 335
291 293 295 298 301 304 307 310 312 314 316 318 320 322 324 327 331 337 343 350 1 14 27 35 35 35 36 34 30 26 23 17 10 2 355 348 342 338 338 339 339 337 336
296 299 302 304 308 311 313 315 318 320 322 325 329 332 337 342 349 357 9 22 32 42 52 51 46 42 34 28 24 21 17 11 4 358 352 348 346 343 343 342 340 339 341
300 303 306 308 311 314 317 321 325 329 333 337 342 349 356 4 13 22 32 44 51 57 56 49 41 33 28 23 18 12 5 358 352 348 346 345 344 344 344 344 345 345 347
300 302 304 307 311 316 322 329 336 342 348 353 0 8 16 24 32 39 44 48 52 54 49 41 36 32 26 19 12 4 355 351 348 343 340 341 343 344 345 348 350 350 353
297 299 302 307 313 321 330 338 344 349 355 4 15 23 30 34 37 40 43 46 45 41 36 33 31 25 17 8 1 354 349 346 344 344 344 344 346 348 349 352 354 356 360
298 300 302 308 315 324 333 341 349 356 3 14 23 29 32 33 37 40 41 39 34 29 27 23 17 11 6 0 357 353 351 349 348 347 346 347 349 350 351 355 359 3 7
299 301 304 309 316 325 334 342 352 1 9 21 30 32 30 33 36 37 33 28 25 23 21 15 9 5 1 359 358 355 353 351 350 349 350 352 354 356 357 359 5 9 13
299 301 305 312 319 330 338 343 351 2 13 24 32 32 29 30 31 29 25 22 20 18 15 12 8 5 1 359 357 355 355 354 354 355 356 358 360 1 3 7 13 19 23
299 301 306 311 319 330 339 342 351 7 18 24 28 27 25 23 23 19 16 14 12 11 10 9 7 4 0 358 359 359 359 0 1 2 3 4 4 6 9 14 21 26 30
305 304 305 307 311 318 330 340 351 2 6 9 11 10 10 8 7 4 3 4 5 6 7 7 5 3 0 1 3 4 4 5 6 6 8 10 9 11 15 20 26 31 35
318 313 312 309 310 311 313 321 333 343 345 346 349 352 352 353 353 352 353 356 360 2 4 5 5 4 5 6 7 8 8 8 10 11 13 17 18 19 24 30 35 40 44
323 317 316 311 309 311 312 314 319 327 332 336 340 342 343 344 346 347 350 354 359 1 3 4 5 6 8 10 11 11 13 14 15 16 19 25 27 28 33 38 43 49 52
342 334 329 324 315 311 312 314 315 315 319 322 327 334 338 342 345 348 353 359 3 5 6 6 8 10 12 13 14 15 17 20 22 24 27 32 34 36 41 46 51 55 58
15 14 9 1 349 338 334 331 327 325 328 329 328 333 340 345 349 354 360 5 8 9 8 10 13 15 16 18 19 20 23 25 28 31 35 40 44 48 53 57 60 63 65
Height
5802 5803 5802 5802 5802 5801 5800 5798 5796 5795 5794 5792 5790 5788 5786 5784 5782 5780 5778 5775 5773 5771 5769 5766 5764 5761 5759 5756 5753 5750 5747 5743 5740 5735 5730 5726 5723 5719 5714 5709 5704 5699 5694
5795 5795 5795 5794 5793 5792 5791 5789 5788 5786 5784 5781 5779 5777 5775 5772 5770 5768 5766 5763 5761 5759 5756 5754 5751 5748 5745 5742 5739 5735 5732 5728 5724 5719 5714 5710 5705 5701 5697 5692 5687 5682 5678
5786 5786 5786 5785 5784 5782 5781 5779 5777 5775 5773 5770 5768 5765 5762 5760 5757 5755 5753 5750 5748 5745 5742 5740 5737 5734 5730 5727 5723 5719 5715 5711 5707 5703 5698 5693 5689 5684 5681 5676 5672 5666 5662
5777 5777 5776 5775 5773 5772 5770 5768 5766 5764 5761 5758 5756 5753 5750 5747 5745 5742 5740 5737 5734 5731 5728 5725 5722 5718 5715 5711 5707 5703 5699 5694 5690 5686 5682 5678 5674 5670 5666 5663 5659 5654 5649
5767 5766 5765 5764 5763 5761 5759 5757 5755 5753 5750 5747 5744 5741 5738 5735 5732 5729 5727 5724 5720 5717 5713 5710 5707 5703 5698 5694 5691 5686 5682 5678 5674 5671 5668 5664 5661 5657 5654 5651 5647 5643 5638
5757 5756 5755 5754 5752 5751 5749 5747 5744 5742 5739 5736 5733 5729 5726 5723 5720 5716 5713 5709 5706 5702 5698 5694 5691 5687 5682 5678 5674 5671 5667 5664 5661 5658 5655 5653 5650 5647 5643 5640 5637 5633 5629
5747 5746 5745 5744 5742 5741 5739 5737 5734 5732 5729 5725 5722 5718 5715 5711 5707 5703 5699 5695 5691 5687 5683 5679 5675 5672 5667 5663 5660 5657 5654 5651 5649 5647 5645 5642 5640 5637 5634 5631 5628 5625 5621
5738 5737 5736 5735 5733 5731 5729 5727 5724 5721 5718 5715 5711 5707 5703 5699 5694 5690 5685 5680 5676 5672 5668 5664 5660 5657 5653 5650 5647 5645 5642 5640 5639 5637 5636 5634 5632 5630 5627 5624 5621 5618 5614
5729 5728 5727 5726 5724 5722 5720 5718 5715 5712 5709 5705 5701 5697 5692 5687 5682 5677 5672 5667 5663 5658 5654 5651 5647 5645 5642 5639 5637 5635 5634 5632 5631 5630 5629 5627 5626 5624 5621 5619 5616 5614 5610
5722 5721 5720 5718 5717 5714 5712 5709 5706 5703 5700 5696 5691 5686 5681 5676 5670 5665 5660 5655 5650 5646 5643 5640 5638 5636 5634 5632 5630 5629 5628 5627 5626 5625 5624 5623 5621 5620 5618 5615 5613 5610 5607
5715 5714 5713 5711 5709 5707 5705 5702 5699 5695 5691 5687 5682 5677 5672 5666 5661 5656 5651 5646 5643 5640 5637 5635 5634 5632 5630 5628 5627 5626 5625 5624 5623 5623 5622 5621 5619 5617 5615 5613 5610 5607 5603
5709 5708 5706 5705 5703 5700 5698 5695 5692 5688 5684 5679 5674 5669 5664 5659 5655 5650 5646 5642 5639 5637 5635 5633 5632 5631 5629 5628 5626 5625 5624 5624 5623 5622 5621 5619 5618 5616 5613 5610 5607 5604 5601
5703 5702 5701 5699 5697 5694 5692 5689 5685 5682 5678 5674 5669 5664 5660 5655 5652 5648 5644 5641 5639 5637 5635 5634 5633 5632 5630 5629 5627 5626 5625 5624 5623 5622 5620 5618 5616 5614 5612 5609 5606 5603 5599
5698 5697 5696 5694 5692 5689 5687 5684 5680 5677 5673 5670 5666 5661 5658 5654 5650 5647 5645 5642 5640 5638 5637 5636 5635 5633 5632 5630 5629 5627 5626 5625 5623 5621 5619 5617 5615 5613 5610 5608 5605 5601 5598
5694 5693 5691 5690 5687 5685 5682 5680 5677 5673 5670 5667 5663 5660 5657 5654 5651 5648 5646 5644 5642 5641 5639 5638 5636 5635 5633 5632 5630 5629 5627 5625 5623 5621 5619 5617 5614 5612 5609 5607 5604 5600 5597
5690 5689 5688 5686 5684 5682 5679 5677 5674 5671 5668 5665 5663 5660 5657 5655 5652 5650 5648 5646 5645 5643 5642 5640 5638 5637 5635 5633 5631 5629 5627 5625 5623 5621 5619 5616 5614 5611 5608 5606 5603 5600 5597
5687 5686 5684 5683 5681 5679 5677 5675 5673 5670 5668 5665 5663 5661 5659 5657 5655 5653 5651 5649 5647 5645 5643 5642 5640 5638 5636 5634 5632 5630 5627 5625 5623 5620 5618 5616 5613 5611 5608 5605 5602 5599 5596
5683 5682 5681 5680 5679 5677 5676 5674 5672 5670 5668 5666 5664 5662 5660 5658 5656 5655 5653 5651 5649 5647 5645 5643 5641 5639 5637 5635 5632 5630 5628 5625 5623 5620 5618 5615 5613 5610 5608 5605 5602 5599 5597
5680 5680 5679 5678 5677 5676 5674 5673 5671 5670 5668 5666 5665 5663 5661 5660 5658 5656 5654 5653 5651 5649 5646 5644 5642 5640 5638 5635 5633 5630 5628 5625 5623 5620 5617 5615 5612 5610 5607 5605 5602 5600 5597
5678 5677 5677 5676 5675 5674 5673 5672 5671 5670 5668 5667 5665 5664 5662 5661 5659 5658 5656 5654 5652 5650 5648 5645 5643 5641 5638 5636 5634 5631 5628 5625 5622 5620 5617 5615 5612 5610 5607 5605 5603 5600 5598
5676 5676 5675 5675 5674 5673 5673 5672 5671 5669 5668 5667 5666 5665 5663 5662 5660 5659 5657 5655 5653 5651 5649 5646 5644 5642 5639 5637 5634 5631 5628 5625 5623 5620 5617 5615 5613 5610 5608 5606 5603 5601 5599
5675 5674 5674 5673 5673 5673 5672 5671 5670 5669 5669 5668 5667 5665 5664 5663 5661 5660 5658 5656 5654 5652 5650 5648 5645 5642 5640 5637 5634 5631 5629 5626 5623 5620 5618 5615 5613 5611 5609 5606 5604 5602 5601
5673 5673 5673 5672 5672 5672 5671 5671 5670 5669 5669 5668 5667 5666 5665 5663 5662 5660 5659 5657 5655 5653 5651 5648 5646 5643 5640 5638 5635 5632 5629 5626 5624 5621 5618 5616 5614 5612 5610 5608 5606 5604 5602
5672 5672 5671 5671 5671 5671 5670 5670 5670 5669 5668 5668 5667 5666 5665 5663 5662 5660 5659 5657 5655 5653 5651 5649 5647 5644 5641 5638 5636 5633 5630 5627 5624 5622 5619 5617 5615 5613 5611 5609 5607 5606 5604
5671 5671 5670 5670 5670 5670 5670 5669 5669 5669 5668 5667 5667 5666 5664 5663 5662 5661 5659 5657 5656 5654 5652 5650 5647 5645 5642 5640 5637 5634 5631 5628 5626 5623 5621 5619 5617 5615 5613 5611 5610 5608 5606
5671 5671 5670 5670 5669 5669 5669 5669 5668 5668 5667 5667 5666 5665 5664 5663 5662 5661 5659 5658 5656 5655 5653 5651 5648 5646 5644 5641 5638 5635 5633 5630 5628 5625 5623 5621 5619 5617 5615 5614 5612 5611 5609